Vorticity
3 9 7 5 3 4 6 3 0 2 6 3 13 12 12 12 10 12 11 12 14 11 10 7 6 8 10 5 1 12 13 14 11 5 3 7 12 36 44 17 14 10 7 5 19 14 1 -9 19 7 10 10 1 9
4 4 8 8 3 3 6 2 2 1 4 7 13 13 13 14 8 11 13 13 16 10 11 12 5 9 11 8 7 5 12 10 15 12 6 4 5 9 21 50 33 12 15 19 -1 9 26 8 -9 -5 23 24 12 17
3 2 7 6 2 4 5 4 4 -1 3 13 12 10 15 11 8 14 12 12 20 10 14 11 9 6 10 11 6 5 11 7 10 13 16 7 3 5 5 15 22 46 26 10 17 19 9 6 13 10 3 -3 8 13
3 5 11 4 2 7 7 5 7 2 5 10 9 14 12 6 12 17 12 14 15 13 16 7 6 4 6 10 10 7 5 7 8 11 11 16 13 6 5 4 11 13 23 31 31 20 13 16 17 13 17 18 15 13
7 7 7 8 9 13 5 5 7 11 5 5 11 15 10 8 13 18 13 14 13 13 13 11 11 11 4 12 10 10 6 5 6 7 10 11 12 18 11 6 6 2 4 9 16 25 36 41 32 18 16 16 10 9
6 2 4 12 14 16 14 2 18 10 7 6 8 11 15 9 12 19 11 16 13 10 16 12 10 9 8 8 11 9 9 5 6 6 5 9 7 11 13 16 12 4 3 4 5 3 1 3 8 14 28 41 41 28
10 0 13 9 10 10 26 14 15 7 5 11 12 14 18 10 14 14 14 19 11 10 14 11 7 9 11 8 10 12 8 7 6 5 5 7 7 8 12 9 11 15 12 7 5 7 6 3 3 4 6 6 6 6
3 2 5 4 15 8 18 11 4 6 11 10 9 17 12 13 11 16 19 12 12 10 12 10 10 12 15 8 12 10 12 12 7 8 7 5 3 12 9 10 11 12 12 14 13 11 8 6 7 8 9 5 5 6
15 2 4 9 24 2 15 10 8 11 4 10 6 16 11 12 21 18 16 12 11 9 15 11 13 13 11 11 10 14 16 16 16 11 10 5 6 10 5 5 6 8 10 10 7 7 9 9 12 9 12 12 9 12
12 3 18 16 19 -0 16 11 9 7 12 11 7 21 10 18 22 12 11 10 10 10 12 15 12 13 16 11 10 10 9 5 8 13 10 11 16 12 8 5 4 5 12 11 14 10 10 10 8 10 12 9 11 6
0 2 13 10 11 20 16 7 -3 9 14 4 13 20 17 19 17 10 10 10 10 11 20 9 10 12 10 4 5 4 5 3 5 7 7 6 27 14 13 9 5 4 7 11 11 13 9 11 15 9 15 13 9 12
3 6 2 3 18 15 12 2 2 17 8 8 16 22 15 16 11 8 10 13 9 11 16 17 14 11 11 1 4 2 -1 2 6 4 6 9 7 8 19 12 10 6 6 15 15 12 12 13 15 9 8 13 16 15
3 34 5 9 12 11 2 14 4 16 8 16 14 20 15 4 13 13 10 13 12 12 12 11 4 -1 4 3 1 1 3 4 3 5 7 8 -1 10 19 13 11 9 9 9 10 11 13 11 14 10 10 13 16 9
48 10 10 4 9 2 32 3 19 15 11 13 17 13 10 14 12 9 12 9 8 10 16 15 14 4 4 4 -0 4 3 6 4 5 11 1 7 12 16 13 6 9 15 12 11 13 14 12 14 11 8 4 18 6
9 1 -1 14 8 26 21 13 6 15 15 13 10 3 12 7 8 8 6 7 6 8 12 8 11 9 7 7 4 3 4 3 7 18 15 10 14 11 15 13 6 10 15 13 11 12 12 12 13 6 12 4 6 20
8 -0 19 20 19 16 15 13 12 17 11 4 2 10 11 10 8 9 7 6 7 11 10 10 2 4 6 4 7 7 9 22 27 22 9 10 9 11 11 9 12 13 10 11 13 9 9 13 13 11 13 13 12 11
9 21 21 21 14 16 13 13 14 8 2 3 6 7 10 8 7 7 8 11 12 12 11 7 6 8 10 6 14 19 26 29 16 6 2 10 11 11 11 6 12 12 10 11 11 12 11 13 12 13 14 12 14 10
19 26 18 16 15 14 11 8 10 0 2 6 8 6 8 11 11 8 4 5 10 15 14 11 9 7 7 13 19 11 13 15 13 14 12 12 12 10 12 12 6 11 14 15 11 13 11 12 12 14 10 14 14 10
21 22 18 14 9 7 6 5 6 2 6 7 7 12 7 4 10 2 2 11 14 16 21 15 17 17 16 15 13 9 8 10 13 11 7 8 13 14 10 10 11 13 15 12 10 7 9 12 10 10 14 12 8 6
19 11 6 5 3 6 10 6 4 9 7 6 1 10 9 1 5 16 18 18 17 9 13 10 15 13 13 3 -3 2 4 6 9 13 14 16 16 10 12 15 13 13 10 9 12 12 10 8 12 11 5 5 7 11
4 4 3 1 4 5 7 7 8 3 4 12 9 4 16 18 22 24 24 23 22 24 18 21 13 5 23 35 25 17 14 24 26 21 18 19 15 13 12 12 10 11 15 14 11 9 9 11 10 6 4 7 18 24
3 5 8 8 5 3 2 -0 2 11 10 11 16 22 22 21 22 18 13 15 17 20 21 25 22 16 12 11 13 22 16 -0 15 10 9 12 10 9 10 13 15 14 8 5 6 10 11 11 10 8 15 23 23 20
4 -1 1 2 0 7 17 22 15 18 19 18 17 13 13 16 18 18 11 9 6 9 10 10 12 13 13 11 9 10 11 16 17 15 11 11 10 15 15 12 9 5 7 9 11 13 13 7 12 23 23 20 18 19
34 36 33 26 21 15 17 17 14 10 8 9 18 21 11 8 9 12 13 19 18 16 14 14 14 16 15 10 8 8 8 11 9 8 13 18 14 8 5 4 8 10 13 16 15 8 10 20 24 21 18 18 19 21
10 11 9 9 5 10 10 9 13 22 14 8 7 13 20 20 19 19 19 22 32 39 33 26 17 19 22 21 19 15 15 18 18 15 9 5 6 6 6 12 15 17 15 8 6 18 22 23 19 17 17 18 20 22
7 10 13 13 13 16 13 9 6 8 11 13 18 17 16 8 5 7 11 15 13 19 20 18 20 19 17 16 16 14 11 9 7 6 4 6 10 14 15 16 14 9 5 16 23 23 20 17 16 16 17 20 21 22
12 17 20 15 9 6 10 11 12 15 15 20 15 7 4 3 4 10 9 3 7 8 9 7 3 0 -1 -1 1 3 6 10 14 17 17 16 14 14 13 11 7 15 26 24 21 17 16 15 16 17 19 21 21 20
6 8 10 9 14 13 14 20 20 20 20 14 7 4 3 2 3 6 8 8 10 9 7 4 3 5 9 12 13 13 13 14 14 14 14 14 13 11 9 19 28 24 21 18 15 15 16 16 17 18 22 21 19 17
10 15 18 20 24 24 18 10 5 4 3 6 8 7 6 8 9 13 15 15 15 14 14 15 16 16 16 16 16 16 15 14 13 13 12 12 17 25 29 21 20 19 17 14 15 16 16 16 16 19 20 20 18 17
25 22 16 11 5 -5 -0 5 9 10 11 12 12 15 17 21 23 25 25 24 24 22 21 21 20 20 19 19 19 20 21 22 22 24 25 25 22 18 18 18 16 15 12 11 12 13 14 15 15 17 20 20 18 16
6 6 8 6 7 10 12 12 16 22 26 25 22 18 15 15 15 14 14 13 14 13 14 14 15 15 16 16 17 17 17 16 17 17 17 16 16 16 16 15 13 9 8 8 9 9 10 12 13 15 18 22 22 17
7 9 11 14 24 28 25 19 18 19 20 20 20 20 20 21 21 21 19 20 19 18 17 16 16 15 14 13 13 14 15 14 14 14 15 15 15 15 13 11 9 7 8 7 8 11 11 9 10 12 13 15 19 25
28 28 21 19 20 20 20 21 21 22 23 24 25 25 25 25 25 25 25 25 25 25 24 23 22 21 19 17 14 12 11 12 13 13 14 13 12 11 10 10 9 8 7 8 10 12 12 11 10 10 11 11 14 18
Height
5733 5729 5724 5720 5716 5711 5706 5699 5690 5683 5676 5670 5662 5654 5649 5640 5635 5628 5622 5616 5610 5603 5598 5593 5590 5586 5581 5576 5571 5566 5563 5558 5554 5551 5547 5542 5537 5534 5533 5535 5536 5539 5541 5543 5546 5548 5551 5552 5555 5559 5561 5562 5565 5568
5724 5720 5715 5711 5707 5703 5698 5692 5683 5675 5667 5662 5655 5649 5641 5635 5628 5623 5617 5611 5605 5600 5595 5590 5586 5583 5579 5574 5570 5566 5562 5558 5554 5551 5548 5544 5540 5536 5532 5529 5530 5534 5534 5536 5539 5540 5542 5545 5547 5549 5550 5553 5555 5557
5715 5710 5705 5701 5697 5694 5689 5684 5675 5666 5659 5654 5647 5639 5632 5627 5622 5617 5613 5606 5601 5595 5590 5585 5582 5579 5576 5572 5568 5564 5559 5555 5552 5549 5546 5544 5541 5537 5534 5530 5527 5526 5527 5528 5531 5532 5533 5535 5536 5538 5539 5540 5542 5544
5705 5701 5696 5691 5687 5683 5679 5674 5667 5658 5651 5645 5639 5632 5625 5619 5616 5610 5605 5599 5595 5591 5586 5581 5577 5574 5571 5568 5564 5561 5557 5553 5550 5546 5543 5541 5538 5536 5533 5530 5527 5525 5522 5522 5522 5523 5524 5524 5526 5527 5527 5529 5530 5530
5694 5690 5685 5680 5676 5669 5668 5665 5658 5648 5642 5635 5631 5624 5617 5611 5608 5601 5596 5592 5587 5584 5580 5576 5572 5569 5566 5563 5560 5556 5553 5550 5546 5543 5540 5537 5534 5532 5529 5527 5525 5523 5521 5519 5517 5515 5514 5514 5514 5515 5513 5515 5515 5515
5682 5678 5674 5669 5663 5656 5654 5652 5645 5637 5631 5625 5621 5615 5608 5602 5599 5594 5589 5582 5577 5575 5573 5569 5566 5562 5560 5557 5554 5551 5548 5545 5541 5538 5536 5532 5530 5528 5525 5522 5521 5518 5516 5514 5512 5510 5508 5506 5504 5503 5501 5500 5499 5500
5668 5664 5660 5657 5652 5646 5643 5639 5631 5625 5619 5614 5608 5604 5597 5591 5588 5585 5581 5577 5572 5567 5564 5561 5558 5555 5552 5550 5547 5544 5541 5539 5535 5532 5530 5527 5524 5522 5519 5517 5514 5512 5510 5508 5506 5504 5502 5500 5497 5496 5493 5490 5487 5486
5655 5650 5647 5645 5639 5635 5632 5627 5621 5615 5609 5604 5598 5594 5587 5581 5577 5574 5569 5566 5562 5560 5556 5553 5551 5548 5545 5543 5540 5536 5534 5531 5529 5525 5523 5519 5516 5513 5512 5510 5507 5505 5502 5499 5497 5495 5492 5490 5488 5486 5484 5482 5478 5475
5639 5635 5633 5630 5625 5622 5618 5611 5606 5604 5600 5593 5587 5582 5576 5571 5567 5564 5559 5556 5553 5552 5547 5545 5543 5541 5537 5534 5531 5529 5525 5523 5522 5518 5515 5512 5509 5505 5503 5500 5497 5495 5492 5490 5487 5484 5481 5478 5475 5473 5471 5469 5467 5463
5624 5620 5618 5616 5611 5607 5604 5598 5594 5591 5587 5581 5575 5570 5566 5562 5558 5554 5550 5548 5544 5541 5538 5535 5533 5531 5529 5525 5523 5520 5517 5514 5513 5511 5507 5505 5501 5495 5492 5489 5486 5483 5480 5477 5475 5472 5469 5466 5463 5459 5457 5455 5453 5450
5609 5607 5604 5602 5597 5594 5589 5586 5582 5579 5575 5567 5564 5559 5555 5551 5549 5544 5542 5538 5535 5532 5529 5526 5524 5522 5518 5517 5515 5510 5507 5504 5503 5501 5497 5495 5493 5486 5481 5478 5475 5471 5468 5464 5461 5458 5455 5451 5448 5445 5442 5439 5436 5433
5593 5594 5591 5587 5581 5579 5575 5571 5566 5565 5561 5556 5551 5546 5543 5542 5539 5536 5532 5529 5525 5523 5521 5518 5516 5514 5511 5508 5504 5501 5497 5495 5492 5489 5486 5483 5480 5475 5471 5467 5463 5459 5455 5451 5447 5444 5440 5437 5434 5430 5427 5424 5420 5416
5578 5578 5573 5570 5566 5565 5561 5556 5552 5551 5546 5543 5539 5536 5535 5533 5529 5526 5523 5519 5517 5514 5511 5510 5507 5504 5501 5497 5493 5490 5485 5482 5479 5476 5473 5471 5466 5462 5458 5454 5449 5445 5441 5437 5433 5429 5426 5423 5419 5416 5413 5409 5406 5402
5562 5558 5554 5553 5552 5550 5546 5539 5538 5536 5533 5531 5528 5526 5526 5525 5519 5515 5512 5509 5507 5503 5500 5497 5495 5492 5487 5482 5479 5474 5471 5469 5464 5463 5460 5454 5450 5447 5443 5439 5436 5432 5427 5423 5418 5415 5411 5407 5405 5402 5398 5395 5391 5387
5541 5541 5541 5539 5536 5535 5530 5526 5524 5523 5521 5517 5515 5516 5518 5513 5510 5504 5501 5499 5495 5491 5487 5484 5481 5478 5474 5467 5464 5461 5455 5451 5449 5447 5441 5439 5435 5431 5428 5424 5421 5417 5412 5407 5403 5399 5396 5392 5389 5387 5384 5381 5376 5372
5525 5528 5528 5523 5520 5518 5516 5511 5507 5509 5507 5504 5503 5506 5505 5502 5499 5494 5490 5487 5482 5479 5474 5470 5463 5458 5456 5453 5449 5446 5441 5438 5433 5427 5425 5422 5420 5417 5413 5409 5406 5402 5397 5392 5388 5384 5381 5377 5374 5371 5368 5365 5361 5356
5510 5517 5511 5506 5503 5502 5499 5496 5494 5492 5491 5492 5496 5494 5491 5488 5487 5483 5479 5476 5470 5465 5460 5454 5449 5443 5437 5432 5430 5428 5426 5422 5416 5413 5410 5408 5405 5401 5398 5394 5391 5387 5383 5378 5374 5371 5367 5363 5360 5357 5353 5350 5345 5341
5499 5498 5495 5492 5490 5488 5486 5483 5479 5478 5479 5481 5481 5482 5477 5474 5471 5467 5464 5460 5455 5450 5445 5440 5433 5429 5424 5420 5417 5412 5407 5403 5401 5399 5396 5393 5390 5387 5383 5379 5375 5372 5369 5365 5361 5357 5353 5350 5346 5342 5338 5334 5329 5325
5483 5482 5481 5480 5478 5476 5474 5475 5470 5466 5467 5468 5468 5466 5462 5459 5455 5450 5446 5441 5436 5431 5425 5421 5415 5413 5409 5405 5401 5396 5393 5390 5387 5385 5382 5378 5375 5372 5368 5364 5361 5358 5354 5351 5347 5342 5338 5334 5330 5326 5322 5317 5313 5309
5469 5469 5469 5468 5465 5464 5459 5459 5457 5454 5454 5455 5452 5449 5444 5441 5436 5430 5425 5420 5415 5410 5407 5404 5403 5397 5393 5389 5385 5382 5379 5375 5373 5370 5367 5363 5360 5357 5354 5350 5347 5343 5339 5335 5331 5327 5323 5319 5315 5310 5305 5301 5297 5292
5457 5458 5456 5456 5453 5450 5446 5442 5440 5441 5439 5437 5435 5430 5427 5422 5418 5412 5408 5403 5398 5394 5391 5388 5384 5382 5377 5372 5368 5366 5362 5359 5356 5354 5352 5349 5345 5342 5339 5336 5332 5328 5324 5320 5316 5312 5307 5303 5298 5294 5289 5284 5279 5273
5446 5445 5444 5441 5440 5436 5432 5430 5428 5425 5421 5420 5417 5412 5410 5407 5402 5397 5391 5387 5383 5380 5375 5371 5367 5363 5360 5356 5353 5349 5347 5344 5342 5339 5337 5334 5331 5328 5324 5321 5317 5313 5309 5305 5301 5296 5291 5287 5282 5278 5272 5267 5262 5257
5432 5432 5430 5428 5425 5420 5420 5417 5414 5410 5405 5404 5401 5396 5394 5391 5388 5383 5378 5374 5369 5365 5359 5355 5351 5348 5345 5341 5338 5335 5333 5330 5328 5325 5322 5320 5316 5313 5310 5306 5303 5299 5295 5290 5285 5280 5276 5271 5266 5261 5255 5251 5247 5243
5415 5414 5413 5411 5410 5408 5407 5404 5400 5397 5393 5389 5386 5382 5378 5375 5372 5368 5364 5359 5352 5347 5343 5339 5335 5331 5329 5326 5324 5322 5319 5317 5314 5311 5308 5305 5302 5299 5295 5292 5288 5283 5278 5274 5269 5265 5260 5255 5250 5245 5241 5237 5233 5230
5404 5403 5402 5400 5398 5396 5393 5389 5385 5382 5379 5376 5372 5368 5363 5359 5356 5354 5349 5343 5336 5331 5327 5323 5321 5317 5314 5312 5309 5307 5304 5302 5299 5296 5294 5291 5288 5284 5280 5276 5271 5267 5263 5259 5254 5249 5244 5240 5235 5231 5228 5224 5221 5219
5390 5389 5389 5386 5384 5382 5379 5377 5374 5371 5366 5362 5359 5355 5350 5346 5343 5340 5337 5331 5325 5320 5316 5312 5309 5306 5303 5299 5296 5294 5291 5288 5285 5283 5280 5276 5272 5268 5264 5260 5256 5252 5248 5243 5238 5234 5230 5226 5222 5219 5216 5213 5210 5208
5378 5378 5376 5374 5371 5370 5367 5364 5360 5356 5352 5349 5345 5341 5337 5333 5330 5327 5322 5317 5313 5309 5305 5301 5297 5293 5290 5287 5283 5280 5276 5273 5270 5267 5263 5259 5256 5252 5249 5245 5241 5237 5232 5228 5225 5221 5218 5214 5211 5208 5205 5202 5200 5199
5368 5366 5364 5362 5359 5355 5353 5349 5346 5343 5340 5336 5333 5329 5323 5319 5315 5310 5306 5301 5297 5293 5289 5284 5281 5277 5273 5270 5267 5263 5260 5256 5253 5250 5246 5243 5240 5237 5233 5229 5225 5222 5219 5216 5213 5210 5207 5204 5201 5198 5195 5193 5192 5191
5355 5353 5351 5349 5347 5344 5341 5339 5335 5332 5328 5324 5319 5313 5308 5303 5298 5293 5288 5284 5279 5275 5271 5267 5263 5259 5256 5253 5250 5247 5243 5240 5237 5234 5231 5228 5225 5222 5218 5216 5213 5211 5208 5206 5203 5201 5198 5195 5192 5189 5187 5185 5184 5183
5345 5343 5342 5340 5337 5335 5332 5328 5323 5318 5313 5308 5302 5297 5291 5285 5281 5276 5270 5266 5261 5257 5253 5249 5245 5242 5239 5236 5233 5230 5227 5224 5221 5219 5215 5213 5211 5209 5207 5205 5203 5201 5199 5197 5195 5193 5190 5187 5184 5181 5179 5177 5176 5176
5337 5336 5334 5331 5328 5324 5319 5314 5309 5304 5299 5293 5287 5282 5277 5271 5266 5260 5255 5250 5246 5242 5238 5234 5230 5227 5224 5221 5218 5216 5213 5211 5208 5206 5204 5202 5200 5198 5197 5196 5194 5193 5191 5190 5188 5186 5183 5180 5177 5175 5172 5170 5169 5168
5330 5327 5324 5320 5316 5312 5307 5303 5298 5292 5287 5281 5275 5269 5263 5257 5251 5246 5241 5236 5232 5227 5223 5220 5216 5213 5210 5208 5205 5203 5201 5199 5197 5195 5193 5192 5190 5189 5188 5187 5186 5184 5183 5182 5180 5178 5176 5173 5171 5168 5166 5164 5162 5161
5321 5318 5315 5312 5308 5303 5299 5294 5289 5283 5277 5270 5264 5258 5252 5246 5240 5235 5230 5224 5219 5214 5210 5206 5202 5199 5196 5194 5192 5190 5188 5187 5185 5184 5182 5181 5181 5180 5179 5178 5176 5175 5174 5173 5171 5170 5168 5166 5164 5162 5160 5158 5156 5154